Sterling Muni, Sterling, CO, CO

9:21 PM MDT on October 20, 2017 (GMT -0600)
Sterling Municipal

Weather History for KSTK - December, 2014

Change the Weather History Date:

Saturday, December 6, 2014

  Actual Average Record
Temperature  
Mean Temperature 39 °F -  
Max Temperature 55 °F 42 °F 55 °F (2014)
Min Temperature 23 °F 16 °F 0 °F (2013)
Degree Days  
Heating Degree Days 26    
Moisture  
Dew Point 29 °F    
Average Humidity 76    
Maximum Humidity 100    
Minimum Humidity 41    
Precipitation  
Precipitation 0.00 in - - ()
Sea Level Pressure  
Sea Level Pressure 30.31 in    
Wind  
Wind Speed 4 mph (SSW)    
Max Wind Speed 16 mph    
Max Gust Speed 21 mph    
Visibility 10 miles    
Events      
Averages and records for this station are not official NWS values.
T = Trace of Precipitation, MM = Missing Value Source: NWS Daily Summary

Daily Weather History Graph

Daily Weather History Graph

Search for Another Location

Airport or City:

Trip Planner

Search our weather history database for the weather conditions in past years. The results will help you decide how hot, cold, wet, or windy it might be!

Date:

Astronomy

Dec. 06, 2014 Rise Set
Actual Time 7:02 AM MST 4:25 PM MST
Civil Twilight 6:31 AM MST 4:56 PM MST
Nautical Twilight 5:57 AM MST 5:30 PM MST
Astronomical Twilight 5:24 AM MST 6:03 PM MST
Moon 5:04 PM MST (12/6) 6:54 AM MST (12/6)
Length of Visible Light 10h 24m
Length of Day
9h 23m
Full, 100% of the Moon is Illuminated
Dec 6
Full
Dec 14
Last Quarter
Dec 21
New
Dec 28
First Quarter
Jan 4
Full

Hourly Weather History & Observations

Time (MST) Temp. Windchill Dew Point Humidity Pressure Visibility Wind Dir Wind Speed Gust Speed Precip Events Conditions
12:10 AM 26.6 °F - 24.8 °F 93% 30.37 in 10.0 mi Calm Calm - N/A   Clear
12:30 AM 24.8 °F - 23.0 °F 93% 30.38 in 10.0 mi Calm Calm - N/A   Clear
12:50 AM 26.6 °F 22.6 °F 23.0 °F 86% 30.39 in 10.0 mi West 3.5 mph - N/A   Clear
1:10 AM 26.6 °F 21.2 °F 24.8 °F 93% 30.39 in 10.0 mi West 4.6 mph - N/A   Clear
1:30 AM 26.6 °F 22.6 °F 24.8 °F 93% 30.39 in 10.0 mi West 3.5 mph - N/A   Clear
1:50 AM 28.4 °F 24.6 °F 26.6 °F 93% 30.39 in 10.0 mi NW 3.5 mph - N/A   Clear
2:10 AM 26.6 °F - 24.8 °F 93% 30.39 in 10.0 mi Calm Calm - N/A   Clear
2:30 AM 26.6 °F 22.6 °F 23.0 °F 86% 30.39 in 10.0 mi NW 3.5 mph - N/A   Clear
2:50 AM 26.6 °F - 26.6 °F 100% 30.39 in 10.0 mi Calm Calm - N/A   Clear
3:10 AM 26.6 °F - 24.8 °F 93% 30.39 in 10.0 mi Calm Calm - N/A   Clear
3:30 AM 23.0 °F - 23.0 °F 100% 30.39 in 10.0 mi Calm Calm - N/A   Clear
3:50 AM 26.6 °F - 24.8 °F 93% 30.38 in 10.0 mi Calm Calm - N/A   Clear
4:10 AM 23.0 °F - 21.2 °F 93% 30.39 in 10.0 mi Calm Calm - N/A   Clear
4:30 AM 24.8 °F - 23.0 °F 93% 30.39 in 10.0 mi Calm Calm - N/A   Clear
4:50 AM 26.6 °F - 23.0 °F 86% 30.39 in 10.0 mi Calm Calm - N/A   Clear
5:10 AM 26.6 °F - 24.8 °F 93% 30.38 in 10.0 mi Calm Calm - N/A   Clear
5:30 AM 26.6 °F - 23.0 °F 86% 30.38 in 10.0 mi Calm Calm - N/A   Clear
5:50 AM 26.6 °F 22.6 °F 23.0 °F 86% 30.39 in 10.0 mi NNW 3.5 mph - N/A   Clear
6:10 AM 26.6 °F - 24.8 °F 93% 30.39 in 10.0 mi Calm Calm - N/A   Clear
6:30 AM 26.6 °F 22.6 °F 26.6 °F 100% 30.38 in 10.0 mi North 3.5 mph - N/A   Clear
6:50 AM 28.4 °F 23.3 °F 26.6 °F 93% 30.38 in 10.0 mi North 4.6 mph - N/A   Clear
7:10 AM 28.4 °F 24.6 °F 26.6 °F 93% 30.39 in 10.0 mi NNW 3.5 mph - N/A   Clear
7:30 AM 30.2 °F - 28.4 °F 93% 30.39 in 10.0 mi Calm Calm - N/A   Clear
7:50 AM 30.2 °F - 28.4 °F 93% 30.39 in 10.0 mi Calm Calm - N/A   Clear
8:10 AM 32.0 °F - 30.2 °F 93% 30.39 in 10.0 mi Calm Calm - N/A   Clear
8:30 AM 32.0 °F - 30.2 °F 93% 30.39 in 10.0 mi Calm Calm - N/A   Clear
8:50 AM 32.0 °F - 32.0 °F 100% 30.39 in 10.0 mi Calm Calm - N/A   Clear
9:10 AM 33.8 °F - 32.0 °F 93% 30.38 in 10.0 mi Calm Calm - N/A   Clear
9:30 AM 35.6 °F - 33.8 °F 93% 30.39 in 10.0 mi Calm Calm - N/A   Clear
9:50 AM 39.2 °F - 33.8 °F 81% 30.38 in 10.0 mi Calm Calm - N/A   Clear
10:10 AM 41.0 °F - 33.8 °F 76% 30.37 in 10.0 mi Calm Calm - N/A   Clear
10:30 AM 44.6 °F 43.1 °F 35.6 °F 71% 30.36 in 10.0 mi SE 3.5 mph - N/A   Clear
10:50 AM 44.6 °F 42.2 °F 35.6 °F 71% 30.35 in 10.0 mi SSE 4.6 mph - N/A   Clear
11:10 AM 48.2 °F - 35.6 °F 62% 30.34 in 10.0 mi South 9.2 mph - N/A   Clear
11:30 AM 50.0 °F - 35.6 °F 58% 30.32 in 10.0 mi SSE 9.2 mph - N/A   Clear
11:50 AM 53.6 °F - 35.6 °F 51% 30.31 in 10.0 mi SSE 6.9 mph - N/A   Clear
12:10 PM 55.4 °F - 33.8 °F 44% 30.30 in 10.0 mi SSE 15.0 mph - N/A   Clear
12:30 PM 55.4 °F - 33.8 °F 44% 30.29 in 10.0 mi SSE 13.8 mph - N/A   Clear
12:50 PM 55.4 °F - 32.0 °F 41% 30.28 in 10.0 mi South 13.8 mph 18.4 mph N/A   Clear
1:10 PM 55.4 °F - 32.0 °F 41% 30.27 in 10.0 mi SSE 15.0 mph 18.4 mph N/A   Clear
1:30 PM 55.4 °F - 32.0 °F 41% 30.26 in 10.0 mi SSE 15.0 mph - N/A   Clear
1:50 PM 55.4 °F - 32.0 °F 41% 30.26 in 10.0 mi South 15.0 mph 20.7 mph N/A   Clear
2:10 PM 55.4 °F - 32.0 °F 41% 30.26 in 10.0 mi South 13.8 mph - N/A   Clear
2:30 PM 53.6 °F - 32.0 °F 44% 30.26 in 10.0 mi South 16.1 mph - N/A   Clear
2:50 PM 53.6 °F - 32.0 °F 44% 30.26 in 10.0 mi South 13.8 mph 18.4 mph N/A   Clear
3:10 PM 53.6 °F - 32.0 °F 44% 30.26 in 10.0 mi South 12.7 mph - N/A   Clear
3:30 PM 51.8 °F - 32.0 °F 47% 30.25 in 10.0 mi SSE 11.5 mph - N/A   Clear
3:50 PM 50.0 °F - 32.0 °F 50% 30.25 in 10.0 mi South 9.2 mph - N/A   Clear
4:10 PM 50.0 °F - 32.0 °F 50% 30.25 in 10.0 mi SSE 11.5 mph 16.1 mph N/A   Clear
4:30 PM 46.4 °F 41.1 °F 32.0 °F 57% 30.25 in 10.0 mi SSE 11.5 mph 16.1 mph N/A   Clear
4:50 PM 46.4 °F 42.4 °F 32.0 °F 57% 30.24 in 10.0 mi SSE 8.1 mph - N/A   Clear
5:10 PM 42.8 °F 37.5 °F 32.0 °F 66% 30.25 in 10.0 mi South 9.2 mph - N/A   Clear
5:30 PM 42.8 °F 36.6 °F 32.0 °F 66% 30.24 in 10.0 mi South 11.5 mph - N/A   Clear
5:50 PM 42.8 °F 36.6 °F 30.2 °F 61% 30.24 in 10.0 mi South 11.5 mph - N/A   Clear
6:10 PM 42.8 °F 36.6 °F 30.2 °F 61% 30.23 in 10.0 mi South 11.5 mph - N/A   Clear
6:30 PM 42.8 °F 39.3 °F 30.2 °F 61% 30.24 in 10.0 mi SSE 5.8 mph - N/A   Clear
6:50 PM 41.0 °F 35.8 °F 30.2 °F 65% 30.25 in 10.0 mi South 8.1 mph - N/A   Clear
7:10 PM 39.2 °F 35.0 °F 30.2 °F 70% 30.25 in 10.0 mi South 5.8 mph - N/A   Clear
7:30 PM 39.2 °F 33.0 °F 30.2 °F 70% 30.24 in 10.0 mi South 9.2 mph - N/A   Clear
7:50 PM 37.4 °F 32.8 °F 30.2 °F 75% 30.24 in 10.0 mi South 5.8 mph - N/A   Clear
8:10 PM 35.6 °F 30.7 °F 28.4 °F 75% 30.24 in 10.0 mi South 5.8 mph - N/A   Clear
8:30 PM 33.8 °F 27.0 °F 28.4 °F 81% 30.24 in 10.0 mi SSW 8.1 mph - N/A   Clear
8:50 PM 33.8 °F 27.7 °F 28.4 °F 81% 30.23 in 10.0 mi SW 6.9 mph - N/A   Clear
9:10 PM 30.2 °F 23.4 °F 26.6 °F 86% 30.23 in 10.0 mi WSW 6.9 mph - N/A   Clear
9:30 PM 28.4 °F 20.4 °F 26.6 °F 93% 30.22 in 10.0 mi WSW 8.1 mph - N/A   Clear
9:50 PM 30.2 °F 22.6 °F 28.4 °F 93% 30.22 in 10.0 mi SW 8.1 mph - N/A   Clear
10:10 PM 30.2 °F 25.4 °F 26.6 °F 86% 30.22 in 10.0 mi WSW 4.6 mph - N/A   Clear
10:30 PM 28.4 °F 21.2 °F 26.6 °F 93% 30.21 in 10.0 mi SW 6.9 mph - N/A   Clear
10:50 PM 28.4 °F 21.2 °F 26.6 °F 93% 30.21 in 10.0 mi WSW 6.9 mph - N/A   Clear
11:10 PM 26.6 °F 22.6 °F 24.8 °F 93% 30.21 in 10.0 mi WNW 3.5 mph - N/A   Clear
11:30 PM 28.4 °F 21.2 °F 26.6 °F 93% 30.21 in 10.0 mi WSW 6.9 mph - N/A   Clear
11:50 PM 28.4 °F 24.6 °F 26.6 °F 93% 30.21 in 10.0 mi SSW 3.5 mph - N/A   Clear